Dewpoint
-2 -2 -2 -2 -3 -4 -2 -3 -3 -7 -2 -5 -6 -8 -8 -9 -5 -2 -2 -1 0 -0 -0 -0 -1 -1 -1 -1 3 6 6 6 7 8 8 8 8 9 9 10 10 11 11 11
-3 -4 -4 -4 -5 -5 -5 -4 -3 -4 -4 -7 -7 -7 -6 -5 -2 -2 -2 -1 0 0 -0 -1 -1 -1 -1 -1 -2 -0 4 6 7 7 8 8 8 8 9 9 9 9 9 10
-3 -3 -3 -6 -5 -4 -5 -5 -5 -3 -6 -6 -6 -6 -6 -6 -5 -3 -2 -1 0 0 -1 -1 -1 -1 -2 -2 -1 -2 -2 0 4 6 6 7 7 8 8 8 8 8 8 8
-1 -2 -4 -7 -7 -7 -6 -8 -5 -5 -5 -6 -7 -8 -8 -8 -6 -4 -3 -2 -1 -1 -1 -1 -1 -1 -1 -1 -2 -1 -1 -2 -2 -1 1 3 4 5 6 7 7 7 7 7
-0 -0 -4 -7 -6 -7 -7 -12 -8 -7 -7 -8 -8 -7 -7 -9 -7 -6 -5 -2 -1 -1 -1 -1 -1 -1 -1 -1 -1 -1 -1 -1 -1 -1 -1 -1 -1 -1 -0 2 3 4 4 5
-0 -0 -5 -10 -15 -9 -11 -13 -13 -8 -8 -9 -7 -7 -8 -11 -7 -10 -6 -3 -2 -1 -1 -2 -2 -0 -0 -1 -2 -2 -1 -2 -1 -1 -1 -1 -1 -0 -1 -1 -1 -1 -2 -1
-0 0 -3 -6 -10 -7 -15 -14 -11 -9 -10 -9 -6 -9 -13 -10 -8 -9 -10 -5 -2 -1 -2 -4 -4 -2 -1 -0 -1 -2 -2 -2 -2 -3 -2 -2 -1 -1 -0 -1 -2 -2 -2 -2
-1 0 -1 -7 -5 -14 -15 -15 -13 -13 -13 -12 -14 -14 -12 -10 -7 -7 -9 -5 -5 -5 -6 -6 -5 -5 -4 -2 -1 -1 -2 -2 -2 -3 -3 -4 -3 -3 -3 -2 -3 -3 -3 -3
-3 -3 -7 -7 -12 -15 -12 -11 -12 -14 -15 -13 -12 -13 -13 -12 -10 -9 -8 -9 -9 -9 -8 -8 -8 -7 -7 -6 -2 -0 -1 -2 -2 -3 -3 -3 -3 -4 -5 -5 -5 -5 -5 -5
-8 -9 -8 -8 -9 -10 -10 -10 -11 -11 -11 -9 -10 -10 -11 -11 -10 -9 -9 -7 -8 -7 -7 -7 -8 -8 -8 -6 -4 -2 -0 -1 -1 -2 -2 -3 -4 -5 -5 -5 -4 -5 -6 -6
-8 -10 -10 -10 -10 -10 -11 -10 -10 -11 -11 -10 -10 -10 -10 -9 -10 -10 -10 -9 -7 -6 -6 -7 -7 -7 -7 -6 -6 -4 -1 -1 -1 -1 -2 -3 -3 -3 -3 -3 -4 -4 -5 -7
-5 -6 -7 -6 -6 -7 -8 -9 -9 -9 -9 -10 -10 -10 -11 -11 -11 -11 -10 -9 -8 -7 -6 -6 -5 -6 -6 -5 -5 -5 -3 -1 -1 -1 -1 -2 -2 -2 -2 -3 -3 -4 -7 -10
-6 -6 -6 -6 -7 -7 -6 -7 -6 -7 -9 -9 -10 -10 -10 -10 -11 -10 -10 -9 -8 -8 -8 -6 -5 -4 -5 -5 -4 -4 -5 -3 -1 -1 -1 -1 -1 -1 -1 -2 -3 -5 -8 -10
-6 -6 -6 -6 -7 -7 -4 -6 -7 -8 -8 -8 -9 -9 -9 -9 -10 -10 -10 -10 -9 -8 -7 -6 -4 -4 -4 -4 -4 -4 -4 -4 -2 -1 -1 -0 -1 -1 -3 -2 -3 -5 -9 -10
-4 -4 -5 -5 -5 -5 -4 -3 -3 -4 -5 -6 -7 -8 -8 -9 -9 -9 -10 -10 -10 -8 -5 -5 -4 -4 -4 -4 -4 -4 -5 -4 -3 -1 -0 -1 -1 -2 -3 -2 -3 -6 -10 -8
-3 -3 -3 -3 -3 -3 -3 -3 -4 -4 -5 -5 -7 -7 -7 -8 -8 -8 -9 -9 -9 -9 -8 -7 -7 -7 -4 -3 -4 -5 -5 -4 -3 -1 -0 -1 -2 -2 -2 -2 -4 -9 -9 -7
-3 -2 -2 -2 -2 -2 -3 -3 -4 -4 -4 -5 -5 -6 -7 -7 -7 -8 -8 -8 -8 -8 -8 -8 -8 -7 -4 -3 -3 -6 -5 -4 -2 -1 -1 -1 -2 -2 -2 -5 -9 -8 -7 -11
-3 -3 -2 -2 -2 -2 -3 -3 -3 -4 -4 -5 -6 -7 -6 -7 -7 -7 -8 -8 -7 -7 -8 -8 -8 -7 -4 -3 -4 -6 -5 -4 -3 -2 -2 -2 -2 -2 -6 -9 -7 -7 -13 -15
-3 -3 -3 -3 -3 -3 -3 -4 -4 -4 -4 -5 -6 -7 -7 -7 -7 -7 -7 -7 -7 -7 -8 -7 -6 -5 -3 -3 -5 -5 -4 -2 -2 -2 -2 -3 -2 -5 -7 -5 -8 -16 -15 -15
-5 -5 -6 -6 -6 -6 -6 -6 -5 -5 -5 -6 -7 -7 -8 -8 -8 -8 -8 -7 -7 -7 -7 -5 -4 -4 -2 -3 -4 -3 -2 -2 -3 -3 -3 -3 -6 -7 -6 -12 -16 -15 -15 -20
-4 -2 -1 1 -6 -7 -7 -7 -6 -7 -8 -7 -7 -7 -7 -7 -7 -7 -7 -7 -7 -6 -5 -4 -4 -3 -2 -3 -3 -3 -2 -3 -2 -3 -3 -6 -7 -7 -15 -15 -15 -17 -20 -20
-6 -1 1 0 1 -5 -7 -7 -7 -7 -7 -7 -8 -8 -8 -8 -7 -7 -7 -6 -6 -5 -4 -3 -3 -2 -2 -2 -2 -2 -3 -3 -3 -4 -8 -6 -9 -15 -15 -15 -19 -20 -20 -19
-4 -6 -1 0 1 -1 -3 -5 -6 -7 -7 -8 -8 -8 -8 -7 -7 -7 -6 -6 -5 -4 -4 -3 -2 -1 -1 -2 -2 -2 -3 -3 -6 -8 -6 -12 -15 -15 -16 -20 -20 -19 -18 -18
-5 -5 -5 -3 -1 -3 -3 -4 -6 -7 -7 -7 -7 -7 -7 -7 -6 -6 -6 -5 -4 -3 -3 -2 -2 -2 -2 -2 -2 -3 -4 -8 -7 -7 -14 -15 -15 -18 -20 -19 -18 -18 -17 -17
-6 -5 -6 -4 -3 -5 -2 -1 -4 -6 -7 -6 -6 -7 -7 -7 -6 -5 -5 -4 -3 -2 -2 -2 -2 -2 -2 -2 -3 -7 -7 -6 -10 -14 -14 -16 -19 -19 -18 -18 -17 -17 -16 -16
-5 -5 -5 -6 -1 0 -2 -0 -2 -6 -7 -6 -7 -7 -7 -6 -5 -4 -4 -3 -2 -2 -3 -3 -3 -2 -3 -5 -6 -6 -7 -12 -15 -15 -17 -20 -19 -18 -17 -17 -16 -16 -16 -15
-5 -4 -4 -5 -5 -1 -1 -1 -1 -5 -3 -2 -4 -7 -6 -5 -5 -4 -3 -3 -3 -3 -3 -3 -3 -4 -5 -6 -6 -10 -14 -15 -15 -19 -19 -18 -17 -17 -16 -16 -15 -15 -14 -14
Wind_Speed
10 17 14 15 13 11 11 10 6 5 6 7 9 12 16 24 20 14 11 11 13 11 9 9 9 11 13 16 17 17 20 21 26 23 23 18 12 9 11 10 16 17 17 16
6 8 9 7 14 17 17 15 18 21 27 21 27 21 13 9 12 14 12 12 13 13 10 9 8 9 10 12 14 15 16 18 18 21 21 23 22 25 23 25 23 13 14 17
6 6 8 6 8 14 6 5 17 13 13 7 7 7 10 13 15 17 17 13 14 14 12 9 7 7 7 8 8 9 11 13 14 14 15 17 18 19 19 17 20 21 16 17
4 6 4 5 4 6 14 6 15 10 12 9 10 15 19 18 18 20 19 17 16 14 11 9 7 6 5 5 6 5 6 8 10 11 13 14 14 14 15 14 13 13 13 13
2 2 9 4 3 5 7 7 17 20 19 20 21 14 17 17 22 23 19 17 16 14 12 9 7 6 6 5 4 5 5 5 6 8 9 10 12 13 13 12 13 13 13 11
1 2 5 4 2 3 2 5 6 15 14 7 6 2 5 8 8 8 18 18 18 16 13 12 9 6 6 4 4 4 3 4 5 6 7 8 9 10 10 9 10 10 9 9
5 4 9 9 6 4 1 6 3 16 17 14 6 10 9 7 9 8 10 16 18 19 17 14 13 11 10 7 6 4 3 2 2 3 5 6 7 8 9 8 8 8 6 7
4 4 9 10 6 7 6 3 6 11 14 16 17 16 17 17 15 13 14 17 19 20 18 16 16 14 14 13 10 8 6 5 2 1 3 4 4 6 7 6 6 6 5 4
11 8 4 25 12 14 12 10 12 13 18 18 19 20 20 22 22 20 18 19 20 20 19 19 19 17 17 15 14 12 11 9 8 7 5 4 3 1 1 1 1 2 1 2
1 8 19 20 30 32 32 32 35 37 34 27 28 28 27 25 25 25 24 24 22 23 23 22 21 20 17 16 15 15 14 13 12 10 9 8 7 5 4 4 4 2 2 2
13 18 23 36 42 39 32 29 32 30 32 37 34 33 30 31 28 27 27 26 26 26 26 24 21 20 18 19 19 17 17 16 15 13 12 10 9 7 6 6 5 4 4 3
15 26 18 27 36 34 28 25 28 33 35 33 30 33 31 33 31 26 28 28 30 30 29 28 24 22 20 20 20 19 20 20 18 16 14 12 10 9 7 6 5 4 3 3
36 50 45 47 41 44 36 43 47 44 41 39 37 34 32 34 33 32 32 32 31 31 31 29 27 25 22 22 21 20 21 20 20 18 17 15 13 12 10 7 6 5 4 4
38 43 42 42 34 38 35 38 37 38 41 40 37 35 33 32 33 34 31 30 30 30 30 28 27 27 24 23 22 21 20 21 22 20 18 16 14 14 12 11 8 7 7 6
51 47 50 51 45 47 47 47 42 39 42 45 44 40 35 34 34 33 32 28 26 28 29 27 26 27 25 25 24 23 22 23 23 21 20 18 16 14 14 11 9 8 7 7
39 33 37 45 39 46 41 43 44 41 36 37 40 39 38 36 36 34 31 30 29 31 30 27 27 25 26 27 25 24 22 21 22 22 22 19 17 14 13 10 9 9 9 10
32 34 41 40 38 40 40 40 40 40 36 34 34 33 29 29 29 31 30 28 26 28 29 27 25 21 25 28 25 24 22 22 23 23 21 19 17 16 12 11 10 9 10 10
49 47 48 46 44 40 40 39 36 34 33 28 24 24 24 26 28 26 23 22 23 23 27 26 24 22 24 26 25 23 22 22 20 20 17 16 16 13 12 11 10 9 9 10
36 39 40 41 41 39 38 39 35 30 25 23 20 21 20 21 21 20 18 19 21 22 23 24 24 22 24 25 24 22 22 21 20 20 19 17 16 13 12 10 9 9 10 12
24 20 20 23 23 22 25 24 22 19 19 19 15 15 16 15 16 16 16 19 19 20 16 18 22 22 22 23 23 22 22 21 21 19 18 16 14 12 11 10 10 10 12 13
12 12 14 24 24 18 14 14 15 13 10 10 11 10 11 10 11 13 15 16 14 16 15 17 18 19 22 24 24 22 22 21 21 19 17 15 13 11 10 10 10 11 12 12
23 18 15 20 22 21 13 9 8 7 5 4 3 2 3 4 6 7 9 10 8 10 13 14 15 17 20 23 22 22 19 19 17 17 15 13 11 10 8 9 10 10 11 12
30 20 15 11 13 13 11 6 4 4 3 2 2 3 5 5 6 7 7 7 7 6 8 9 12 15 20 20 19 16 16 17 16 13 12 11 10 8 8 8 8 9 10 11
38 25 13 9 10 7 9 11 8 5 3 3 4 5 5 5 5 6 6 5 5 4 6 10 12 18 19 18 15 15 16 15 14 13 12 11 9 8 7 7 7 7 9 11
34 28 15 10 7 8 7 12 14 8 4 4 6 8 8 7 6 6 4 3 5 7 9 11 15 18 17 14 14 15 14 13 12 11 9 9 7 6 5 5 5 6 8 9
30 25 20 17 15 16 15 12 16 14 5 4 8 10 9 7 4 2 2 4 8 10 13 18 16 14 13 13 15 14 14 13 11 9 8 8 7 6 4 4 4 5 6 8
31 28 25 26 25 19 17 17 18 11 4 7 13 12 9 6 3 4 6 8 11 14 16 14 13 11 14 14 14 13 12 11 9 8 8 7 5 4 3 3 3 5 7 9
Wind_Direction
256 263 262 254 243 208 199 196 195 266 270 266 269 267 262 277 264 231 252 259 273 287 310 331 355 14 26 31 31 29 40 46 46 55 66 89 119 164 138 159 173 175 183 192
282 267 238 253 237 228 231 227 245 262 278 281 273 278 263 259 221 239 246 259 262 276 288 305 331 353 7 25 31 31 34 45 49 52 55 56 65 70 77 89 86 115 136 184
271 328 312 307 229 202 197 199 218 230 239 253 261 229 242 251 250 256 250 255 253 266 274 286 303 328 348 7 23 25 34 46 48 48 59 65 61 67 77 79 87 85 85 79
274 335 334 254 167 181 205 224 214 244 243 233 238 261 279 259 250 244 247 250 254 260 263 272 284 296 316 348 0 18 25 33 49 55 63 66 74 77 79 84 80 84 84 80
263 247 289 298 201 174 174 279 219 226 250 255 264 271 270 255 255 255 252 247 254 261 260 265 269 277 287 308 335 0 30 41 43 54 61 65 73 80 80 82 91 94 94 95
295 213 260 229 264 228 182 293 218 197 229 242 183 284 260 249 246 255 241 239 239 254 256 256 255 252 258 270 290 321 358 43 51 60 70 81 84 84 85 86 82 80 87 88
220 254 275 253 175 151 241 250 279 205 212 184 182 225 288 255 266 263 239 236 241 248 252 249 246 242 247 245 244 248 277 341 44 62 71 82 93 98 95 90 89 87 82 83
188 219 273 168 116 174 218 279 288 250 240 220 233 255 261 265 262 264 243 236 241 246 251 248 245 240 238 237 230 227 223 223 226 121 93 90 84 88 96 102 94 84 71 61
194 215 254 188 216 239 249 269 273 268 273 274 268 266 269 265 263 262 259 247 244 245 245 243 245 244 243 241 232 225 222 217 212 205 196 186 183 164 14 8 63 101 71 352
236 229 250 252 259 274 275 271 280 277 273 266 270 272 272 272 270 262 260 256 251 246 243 243 243 243 244 241 236 230 226 220 218 214 211 211 222 230 227 231 235 240 267 281
253 263 278 270 269 275 281 291 289 284 279 273 272 272 272 272 268 266 262 260 259 254 252 250 246 245 240 237 237 233 230 225 219 217 218 220 219 220 221 225 228 231 225 222
256 262 256 268 270 273 280 277 283 286 290 285 275 271 275 271 268 264 269 263 258 257 258 256 247 241 239 238 238 234 231 229 226 223 223 226 230 237 242 246 233 231 233 228
251 261 265 272 275 276 278 279 281 283 286 284 280 274 274 272 269 270 272 267 258 256 259 260 255 248 241 236 237 237 237 233 229 229 231 233 237 250 257 256 256 254 250 253
250 256 264 269 270 279 281 281 281 279 280 278 276 277 276 271 272 272 268 267 264 259 254 256 254 250 247 241 239 239 237 233 230 233 234 234 249 258 266 239 247 247 250 263
259 257 262 270 274 273 275 279 276 273 275 277 274 273 270 268 268 268 272 270 272 259 253 250 248 247 242 239 239 242 239 231 225 225 227 234 243 253 261 246 251 254 263 279
267 271 272 267 267 273 273 275 273 275 273 274 274 272 274 271 270 271 268 267 257 253 248 247 246 248 239 236 237 239 239 235 226 224 225 234 238 245 255 251 248 254 265 274
265 269 270 271 270 270 270 271 270 273 276 278 280 283 279 274 269 265 264 259 256 254 251 252 250 250 236 234 235 236 233 227 223 223 228 232 236 251 254 247 245 256 272 283
260 263 270 272 274 276 277 276 274 276 277 282 284 283 274 269 266 266 262 260 257 254 250 247 244 241 233 229 231 231 227 226 217 223 226 232 248 250 240 239 247 257 265 276
281 278 282 287 285 281 282 284 287 287 282 279 278 278 276 271 269 265 258 256 255 252 250 249 245 236 228 224 225 223 222 215 216 221 228 230 239 236 240 246 250 256 271 286
315 322 320 308 304 294 290 289 284 279 276 274 267 264 268 268 266 262 256 255 259 266 267 256 244 232 221 218 217 216 216 212 216 216 224 229 225 228 236 241 247 267 285 291
331 332 350 353 337 323 308 292 281 276 266 258 259 263 270 270 269 268 265 264 266 262 256 249 238 224 212 212 210 209 210 212 210 217 222 219 222 227 228 243 271 285 290 296
329 325 327 341 330 342 327 303 287 279 270 261 262 287 304 303 299 293 285 278 261 251 245 243 234 221 214 211 209 211 215 212 215 210 211 215 216 219 241 268 279 289 294 301
335 327 319 316 334 326 331 337 331 305 294 292 358 13 355 335 324 314 306 295 274 245 229 229 219 209 212 212 209 221 213 209 205 204 209 209 212 233 256 268 278 287 296 304
340 329 299 305 309 308 322 333 325 310 311 333 358 6 358 341 323 315 309 288 243 194 183 190 193 202 203 205 215 213 205 200 198 198 204 212 228 243 250 261 276 293 306 316
322 329 305 279 281 271 259 277 304 301 315 340 351 348 348 338 319 309 300 255 180 170 175 178 188 193 194 207 208 198 194 196 194 194 204 226 228 235 246 264 285 305 320 328
309 311 312 267 265 262 261 256 255 273 289 342 333 321 315 306 301 304 237 182 167 167 178 182 185 188 197 191 189 188 189 191 192 202 215 220 217 224 243 270 298 320 334 345
297 293 302 293 266 250 252 245 248 262 280 298 301 300 289 278 254 202 188 170 171 174 182 185 192 191 180 178 182 183 182 187 198 203 207 210 211 217 235 271 306 327 343 349
Height
1510 1501 1499 1494 1493 1491 1500 1494 1505 1472 1469 1453 1451 1446 1441 1440 1439 1438 1437 1437 1437 1436 1435 1433 1430 1426 1422 1418 1413 1409 1403 1398 1396 1392 1388 1384 1382 1383 1378 1382 1385 1384 1391 1395
1516 1493 1495 1490 1481 1481 1477 1478 1477 1470 1460 1444 1438 1437 1435 1434 1434 1435 1434 1434 1434 1433 1432 1430 1428 1426 1423 1420 1415 1412 1408 1404 1402 1399 1396 1392 1390 1388 1388 1387 1389 1390 1391 1394
1511 1493 1496 1489 1464 1466 1463 1459 1459 1470 1441 1438 1436 1433 1431 1431 1430 1430 1430 1430 1430 1430 1429 1429 1427 1425 1423 1420 1418 1415 1412 1409 1406 1404 1401 1399 1397 1396 1397 1395 1395 1393 1397 1394
1514 1501 1483 1447 1445 1447 1448 1442 1444 1440 1433 1432 1430 1428 1427 1425 1424 1424 1424 1425 1426 1426 1426 1426 1426 1424 1423 1421 1418 1416 1414 1411 1409 1408 1407 1405 1403 1402 1402 1402 1399 1401 1401 1402
1517 1512 1470 1439 1445 1447 1447 1433 1427 1429 1425 1425 1426 1425 1419 1418 1417 1417 1418 1420 1422 1422 1423 1423 1423 1423 1422 1420 1419 1417 1415 1413 1412 1411 1410 1408 1407 1407 1406 1407 1406 1406 1406 1408
1511 1505 1470 1438 1438 1438 1439 1441 1415 1418 1420 1422 1426 1431 1418 1413 1412 1411 1413 1415 1416 1417 1418 1419 1419 1420 1420 1419 1419 1417 1416 1415 1414 1413 1412 1411 1411 1410 1410 1410 1409 1410 1412 1414
1509 1497 1464 1435 1434 1438 1442 1435 1415 1414 1412 1414 1420 1415 1412 1411 1411 1410 1410 1410 1412 1413 1413 1413 1414 1415 1416 1417 1417 1416 1415 1415 1415 1415 1413 1413 1413 1413 1413 1412 1413 1414 1416 1415
1498 1494 1464 1428 1433 1436 1421 1415 1415 1415 1413 1409 1407 1408 1407 1407 1407 1406 1406 1407 1407 1407 1408 1409 1409 1409 1409 1410 1412 1413 1414 1414 1414 1414 1414 1414 1414 1414 1414 1415 1414 1414 1416 1417
1462 1447 1421 1420 1417 1415 1414 1413 1413 1412 1411 1409 1406 1405 1404 1402 1400 1401 1402 1401 1402 1402 1404 1404 1405 1405 1406 1406 1407 1408 1409 1410 1411 1412 1412 1412 1413 1414 1414 1414 1414 1415 1415 1416
1441 1420 1420 1418 1416 1411 1409 1408 1407 1405 1403 1403 1399 1399 1398 1397 1396 1395 1395 1395 1396 1397 1397 1398 1399 1401 1403 1403 1404 1405 1406 1407 1408 1409 1409 1410 1411 1412 1413 1413 1414 1413 1414 1414
1424 1413 1416 1411 1406 1404 1401 1399 1397 1396 1394 1393 1393 1391 1390 1388 1389 1389 1388 1389 1390 1390 1391 1391 1394 1396 1398 1398 1399 1400 1402 1403 1404 1406 1407 1408 1409 1410 1411 1411 1411 1411 1411 1412
1410 1401 1404 1398 1397 1395 1394 1391 1389 1389 1386 1385 1385 1383 1384 1380 1381 1382 1381 1381 1381 1382 1383 1384 1386 1387 1391 1393 1395 1396 1397 1399 1400 1402 1404 1405 1407 1407 1408 1408 1408 1408 1408 1409
1399 1394 1393 1388 1390 1387 1389 1386 1380 1378 1376 1374 1374 1375 1373 1373 1372 1373 1373 1374 1372 1372 1375 1378 1380 1381 1383 1386 1389 1391 1393 1395 1397 1399 1401 1402 1403 1404 1405 1404 1404 1405 1405 1406
1395 1393 1381 1382 1376 1376 1377 1374 1372 1369 1367 1364 1363 1364 1364 1363 1364 1364 1363 1364 1365 1366 1366 1369 1372 1374 1377 1379 1382 1384 1387 1389 1391 1394 1396 1398 1399 1400 1401 1401 1402 1402 1403 1403
1378 1381 1372 1369 1369 1367 1366 1363 1360 1357 1355 1353 1352 1353 1354 1353 1353 1354 1356 1357 1357 1357 1358 1361 1363 1365 1370 1371 1374 1377 1380 1382 1384 1387 1390 1393 1395 1395 1396 1397 1397 1398 1399 1399
1366 1369 1365 1358 1356 1354 1354 1351 1348 1343 1344 1342 1340 1342 1343 1343 1343 1344 1346 1348 1347 1347 1350 1353 1354 1358 1362 1364 1367 1370 1374 1377 1380 1382 1385 1388 1390 1391 1391 1392 1393 1394 1395 1395
1360 1357 1351 1346 1345 1343 1341 1340 1338 1334 1333 1331 1331 1331 1332 1333 1333 1333 1334 1337 1338 1339 1343 1345 1347 1351 1355 1358 1362 1364 1368 1372 1376 1379 1381 1383 1384 1385 1387 1387 1388 1389 1391 1391
1346 1343 1341 1337 1334 1333 1331 1330 1328 1325 1323 1323 1323 1324 1324 1326 1325 1325 1326 1329 1330 1330 1334 1337 1340 1342 1346 1351 1356 1359 1362 1365 1370 1374 1376 1379 1381 1381 1382 1383 1384 1384 1386 1387
1336 1334 1332 1329 1327 1325 1323 1321 1318 1317 1316 1316 1315 1317 1318 1320 1321 1320 1321 1321 1323 1324 1327 1332 1334 1335 1338 1343 1349 1353 1358 1362 1365 1368 1371 1373 1375 1378 1380 1381 1381 1382 1382 1382
1331 1328 1325 1322 1318 1316 1312 1313 1312 1310 1311 1311 1309 1311 1313 1315 1317 1316 1315 1315 1317 1321 1323 1327 1329 1329 1334 1339 1343 1348 1353 1357 1360 1364 1366 1368 1371 1373 1374 1377 1377 1377 1377 1377
1327 1325 1321 1317 1314 1311 1309 1308 1308 1308 1307 1306 1307 1308 1310 1311 1312 1312 1312 1311 1313 1315 1320 1323 1324 1326 1329 1334 1339 1343 1348 1352 1355 1358 1362 1365 1367 1369 1371 1372 1373 1373 1372 1372
1326 1321 1318 1316 1313 1310 1307 1307 1306 1306 1305 1305 1305 1304 1307 1309 1309 1310 1311 1311 1310 1311 1315 1318 1323 1326 1329 1333 1337 1341 1345 1350 1353 1355 1359 1362 1364 1366 1367 1368 1369 1368 1368 1366
1324 1318 1316 1315 1310 1311 1310 1307 1305 1305 1306 1306 1305 1303 1304 1306 1307 1308 1310 1310 1309 1309 1311 1316 1321 1325 1329 1334 1338 1340 1343 1347 1350 1353 1357 1359 1361 1362 1363 1363 1364 1364 1363 1361
1322 1318 1314 1314 1311 1311 1309 1308 1307 1307 1306 1306 1305 1304 1303 1305 1306 1307 1307 1307 1308 1308 1310 1314 1318 1323 1328 1333 1336 1339 1342 1345 1348 1349 1355 1358 1357 1358 1359 1359 1359 1359 1358 1356
1323 1318 1314 1314 1311 1312 1309 1309 1308 1307 1304 1304 1305 1304 1303 1303 1305 1306 1307 1307 1307 1308 1310 1315 1318 1322 1326 1330 1335 1339 1343 1346 1348 1350 1352 1356 1355 1356 1357 1357 1357 1356 1355 1353
1316 1313 1312 1310 1310 1307 1307 1307 1308 1307 1304 1302 1304 1305 1304 1303 1303 1304 1306 1307 1308 1309 1313 1315 1318 1321 1324 1329 1335 1338 1340 1344 1346 1348 1350 1352 1351 1352 1354 1355 1354 1353 1352 1350
1309 1307 1305 1303 1303 1303 1302 1304 1305 1304 1302 1302 1303 1303 1303 1303 1302 1304 1306 1306 1308 1311 1314 1316 1320 1322 1326 1330 1334 1338 1340 1342 1345 1346 1349 1351 1351 1351 1352 1352 1352 1352 1350 1348